星链-5428 (STARLINK-5428 )

导读

STARLINK-5428是美国SpaceX公司星链(Starlink)星座中的一颗互联网卫星,于2022年12月17日发射升空。该卫星运行在近地轨道,属于星链第二代组网卫星,质量约300千克,负责为全球提供高速低延迟的宽带互联网接入服务,尤其覆盖偏远地区。它是星链星座扩容的组成部分,助力实现全球卫星互联网覆盖目标。

基本信息
目录编号:
54800
目录名称:
STARLINK-5428
国际标识:
2022-175AU
轨道中心:
EARTH
卫星名称:
星链-5428
卫星全名:
星链-5428 (STARLINK-5428 )
卫星状态:
在轨 (已飞行1364 天)
发射日期:
2022-12-17 UTC
国别 :
美国 (US)
星等 :
--
该卫星已列入 空间交会检测服务 Space Conjunction Data Service (SCDS) ,当前飞行风险评估等级: 无高风险
轨道信息
数据来源 国际轨道数据 AOE轨道数据
星历时间 2026-09-10T16:14:44+0800
1天前
查看轨道信息
2026-09-10T07:00:00+0800
1天前
查看轨道信息
半长轴 6848.884km 6848.804km
偏心率 0.0001352 0.0001247
轨道倾角 53.161° 53.159°
近地点辐角 83.475° 73.899°
升交点赤经 279.102° 280.896°
平近点角 276.640° 320.867°
近地点 469.821km 469.812km
远地点 471.673km 471.522km
周期 94.013分钟 94.012分钟
每日圈数 15.316977 15.317248
详细信息
固有亮度:
5
最大亮度:
2.5
卫星平台:
Starlink v1.5
覆盖范围:
全球
运营商:
太空探索技术公司
运营商所在国:
美国
制造商(研发单位):
太空探索技术公司
制造商所在国:
美国
使用方式:
暂无
卫星简介
星链(Starlink)计划是由太空探索技术公司(SpaceX)提出的一个巨型低轨卫星互联网星座项目,计划在2019年至2024年间在太空搭建由约1.2万颗卫星组成的“星链”网络,其中1584颗将部署在地球上空550千米处的近地轨道,并从2020年开始工作。该卫星仍在工作。
2D轨道图
3D轨道图
轨道高度分析图
轨道倾角分析图
轨道综合分析图
查看轨道综合分析图
交会数据列表
事件ID 空间交会对象 最接近时刻(TCA) 交会距离 交会风险概率(CRP) 交会风险指数(CRI) 操作
CDM_260913-074705-480006-567622
2026-09-13T
07:47:15+0000
0.560 km
远距离
9.954755E-5 中风险 0.75
CDM_260912-213605-480006-567622
2026-09-12T
21:36:32+0000
1.189 km
极远距离
8.948553E-6 低风险 0.54
CDM_260911-180805-480006-867322
2026-09-11T
18:08:37+0000
2.775 km
极远距离
1.451243E-6 低风险 0.38
CDM_260912-202405-304305-480021
2026-09-12T
20:24:00+0000
2.939 km
极远距离
1.36463E-6 低风险 0.38
CDM_260908-020905-480006-484221
2026-09-08T
02:09:02+0000
2.963 km
极远距离
1.35644E-6 低风险 0.38
CDM_260911-123005-480006-969021
2026-09-11T
12:30:00+0000
2.968 km
极远距离
1.353629E-6 低风险 0.38
CDM_260912-152005-368705-480021
2026-09-12T
15:20:13+0000
2.963 km
极远距离
1.309314E-6 低风险 0.37
CDM_260912-060705-480006-074622
OBJECT B (60746)
2026-09-12T
06:07:50+0000
2.974 km
极远距离
1.285206E-6 低风险 0.37
CDM_260912-200205-480006-567622
2026-09-12T
20:02:34+0000
2.448 km
极远距离
1.190747E-6 低风险 0.37
CDM_260913-092105-480006-567621
2026-09-13T
09:21:12+0000
2.684 km
极远距离
1.025812E-6 低风险 0.35
与全量物体交会距离演化趋势
与全量物体交会风险概率演化趋势